Location: Voyageurs National Park
(48.5020°N, 92.9292°W)
Time: 07:32:45
(UTC-05:00)

Amateur Radio Satellites - All Passes

Search period start: 26 May 2016 07:02
Search period end: 27 May 2016 07:02
Location: Voyageurs National Park, 48.5020°N, 92.9292°W

Satellite Date Start Highest point End Downlink Frequencies (MHz)
Time Altitude Azimuth
Cosmos 2504 26 May 07:06:31 07:13:27 31° 278° (W) 07:20:42 435.465 / 435.565
LilacSat-2 26 May 07:06:41 07:10:09 33° 97° (E) 07:13:36 437.200
STRAND 1 26 May 07:24:15 07:29:20 83° 75° (ENE) 07:34:29 437.568
AO-7 26 May 07:28:52 07:35:29 27° 313° (NW) 07:42:06 29.400- 29.500
CUTE-I 26 May 07:30:01 07:35:20 61° 102° (ESE) 07:40:38 437.470
PRISM 26 May 07:36:42 07:39:57 22° 63° (ENE) 07:43:13 437.425
DOVE 4 26 May 07:45:11 07:48:49 24° 92° (E) 07:52:17 437.250
BRITE-PL 26 May 07:51:29 07:56:48 74° 286° (WNW) 08:01:39 437.365/2234.400
Cosmos 2491 26 May 07:59:30 08:04:12 15° 313° (NW) 08:08:57 435.465 / 435.565
Cosmos 2499 26 May 07:59:59 08:05:08 17° 52° (NE) 08:10:26 435.465 / 435.565
NOAA 18 26 May 08:07:46 08:13:10 62° 291° (WNW) 08:18:34 137.9125
AIST 1 26 May 08:11:08 08:14:58 29° 71° (ENE) 08:18:45
Cubesat XI-IV 26 May 08:23:16 08:28:28 53° 291° (WNW) 08:33:40 437.490
SO-50 26 May 08:23:37 08:27:43 27° 34° (NE) 08:31:42 436.795
NOAA 15 26 May 08:24:50 08:29:42 38° 295° (WNW) 08:34:32 137.62
GOMX 1 26 May 08:25:00 08:29:52 71° 286° (WNW) 08:34:20 467.674
CINEMA 3 26 May 08:28:17 08:31:24 20° 92° (E) 08:34:28 145.822/145.860
LilacSat-2 26 May 08:41:20 08:44:19 22° 295° (WNW) 08:47:16 437.200
AO-85 26 May 08:41:53 08:47:00 40° 319° (NW) 08:51:55 145.980
HO-68 26 May 08:44:06 08:50:40 37° 96° (E) 08:57:11 435.675
GONETS M04 26 May 08:51:06 08:59:26 46° 70° (ENE) 09:07:41
CANX-2 26 May 08:54:01 08:58:03 39° 97° (E) 09:02:05 2200.000
SEEDS 26 May 09:00:13 09:04:00 30° 95° (E) 09:07:46 437.485
STRAND 1 26 May 09:06:22 09:09:12 15° 272° (W) 09:12:02 437.568
CUTE-I 26 May 09:10:47 09:15:00 24° 301° (WNW) 09:19:13 437.470
PRISM 26 May 09:11:06 09:15:02 41° 261° (W) 09:19:02 437.425
Oscar 11 26 May 09:20:20 09:22:26 13° 88° (E) 09:24:31 145.826/435.025
CUTE 1.7 + AOD 2 26 May 09:21:28 09:25:45 67° 102° (ESE) 09:30:00 437.475
DOVE 4 26 May 09:22:31 09:26:43 39° 292° (WNW) 09:30:42 437.250
PCSat 26 May 09:23:46 09:26:03 13° 102° (ESE) 09:28:20 145.827
CUBEBUG 2 26 May 09:28:27 09:32:02 27° 95° (E) 09:35:35 437.445
ZACube-1 26 May 09:31:02 09:33:23 15° 89° (E) 09:35:44 437.345
BRITE-PL 26 May 09:31:46 09:34:17 14° 307° (NW) 09:36:43 437.365/2234.400
AUBIESAT-1 26 May 09:39:03 09:42:25 85° 111° (ESE) 09:45:42 437.475
UNISAT 6 26 May 09:42:06 09:45:44 26° 65° (ENE) 09:49:19 437.425
M-CUBED/EXP-1 PRIME 26 May 09:44:21 09:47:41 65° 292° (WNW) 09:50:55 437.505
AIST 1 26 May 09:48:43 09:52:34 31° 270° (W) 09:56:22
COMPASS 1 26 May 09:49:07 09:53:19 70° 101° (E) 09:57:32 437.405
TIGRISAT 26 May 09:50:03 09:53:49 29° 66° (ENE) 09:57:32 435.000
NOAA 18 26 May 09:50:36 09:52:49 13° 310° (NW) 09:55:01 137.9125
Cosmos 2499 26 May 09:51:43 10:00:08 64° 76° (ENE) 10:08:55 435.465 / 435.565
AAUSAT CUBESAT 2 26 May 09:53:15 09:57:27 63° 102° (ESE) 10:01:36 437.432
UWE-3 26 May 10:00:12 10:04:09 40° 98° (E) 10:08:07 435.000/436.395/437.385
SO-50 26 May 10:03:54 10:08:37 66° 236° (SW) 10:13:09 436.795
CINEMA 3 26 May 10:04:48 10:08:48 43° 290° (WNW) 10:12:44 145.822/145.860
GOMX 1 26 May 10:05:25 10:06:58 11° 307° (NW) 10:08:29 467.674
Cubesat XI-IV 26 May 10:06:37 10:07:24 10° 311° (NW) 10:08:11 437.490
NANOSAT C BR1 26 May 10:08:50 10:09:46 11° 56° (NE) 10:10:41 145.865
FUNcube-1 26 May 10:08:57 10:12:44 32° 96° (E) 10:16:32 145.935
ANTELSAT 26 May 10:22:34 10:26:52 62° 73° (ENE) 10:31:08 437.575/2403.000
AO-85 26 May 10:25:38 10:28:50 16° 341° (NNW) 10:31:57 145.980
O/OREOS (USA 219) 26 May 10:28:45 10:33:13 58° 111° (ESE) 10:37:42 437.305
CANX-2 26 May 10:30:16 10:33:44 24° 295° (WNW) 10:37:12 2200.000
HO-68 26 May 10:31:43 10:38:37 53° 296° (WNW) 10:45:32 435.675
SEEDS 26 May 10:35:56 10:39:40 30° 294° (WNW) 10:43:24 437.485
DELFI C3 26 May 10:36:33 10:40:19 36° 97° (E) 10:44:04 145.870
DUCHIFAT 1 26 May 10:45:31 10:48:45 22° 63° (ENE) 10:51:59 145.980
GONETS M04 26 May 10:48:08 10:56:18 47° 272° (W) 11:04:27
JAS-2 26 May 10:52:52 10:57:25 17° 45° (NE) 11:02:02 435.910
Oscar 11 26 May 10:54:44 10:59:05 73° 286° (WNW) 11:03:24 145.826/435.025
CUTE 1.7 + AOD 2 26 May 10:58:32 11:01:06 16° 300° (WNW) 11:03:41 437.475
PCSat 26 May 11:03:06 11:08:31 76° 121° (ESE) 11:13:58 145.827
CUBEBUG 2 26 May 11:05:00 11:08:42 32° 292° (WNW) 11:12:24 437.445
ZACube-1 26 May 11:05:58 11:10:05 62° 287° (WNW) 11:14:15 437.345
BUGSAT 1 26 May 11:10:19 11:13:23 20° 62° (ENE) 11:16:25 437.445
UNISAT 6 26 May 11:18:17 11:22:20 37° 263° (W) 11:26:21 437.425
POPSAT HIP 1 26 May 11:20:48 11:24:55 50° 71° (ENE) 11:29:01 437.405
QB50P1 26 May 11:21:21 11:25:28 51° 71° (ENE) 11:29:35 145.935-145.965
QB50P2 26 May 11:23:03 11:27:13 56° 71° (ENE) 11:31:23 145.880/145.840
POLYITAN 1 26 May 11:25:30 11:29:40 58° 72° (ENE) 11:33:50 437.675
COMPASS 1 26 May 11:26:00 11:28:23 15° 300° (WNW) 11:30:47 437.405
TIGRISAT 26 May 11:26:32 11:30:27 32° 263° (W) 11:34:21 435.000
HUMSAT D 26 May 11:27:26 11:31:32 60° 101° (E) 11:35:40 437.325/437.525
AAUSAT CUBESAT 2 26 May 11:29:53 11:32:29 16° 299° (WNW) 11:35:05 437.432
DANDE 26 May 11:36:55 11:39:58 14° 73° (ENE) 11:43:21 436.750
UWE-3 26 May 11:37:11 11:40:26 22° 296° (WNW) 11:43:42 435.000/436.395/437.385
50 SAT 26 May 11:39:55 11:41:05 11° 89° (E) 11:42:16 437.505
NANOSAT C BR1 26 May 11:40:32 11:44:46 78° 74° (ENE) 11:49:00 145.865
FUNcube-1 26 May 11:45:22 11:48:55 27° 294° (WNW) 11:52:28 145.935
Cosmos 2499 26 May 11:45:26 11:52:50 35° 276° (W) 12:00:30 435.465 / 435.565
AISAT 26 May 11:48:35 11:51:14 15° 89° (E) 11:53:52 437.250
CUSAT 1 26 May 11:52:58 11:58:56 41° 88° (E) 12:06:00 437.405
Oscar 19 26 May 11:56:30 11:59:13 14° 54° (NE) 12:01:55 437.125/150
ANTELSAT 26 May 12:01:27 12:04:00 15° 270° (W) 12:06:33 437.575/2403.000
UKube-1 26 May 12:04:54 12:07:19 14° 89° (E) 12:09:43 .
AO-85 26 May 12:09:10 12:11:26 13° 6° (N) 12:13:38 145.980
O/OREOS (USA 219) 26 May 12:09:27 12:13:00 22° 311° (NW) 12:16:32 437.305
DELFI C3 26 May 12:11:47 12:15:01 23° 295° (WNW) 12:18:14 145.870
ESTCUBE 1 26 May 12:19:31 12:23:52 42° 98° (E) 12:28:11 437.505/2401.250
DUCHIFAT 1 26 May 12:20:10 12:24:12 44° 261° (W) 12:28:15 145.980
BEESAT 2 26 May 12:20:47 12:23:52 22° 115° (ESE) 12:26:57 435.950
HO-68 26 May 12:21:18 12:24:50 15° 318° (NW) 12:28:23 435.675
JAS-2 26 May 12:33:35 12:40:50 59° 67° (ENE) 12:48:32 435.910
Oscar 11 26 May 12:33:40 12:34:26 10° 305° (NW) 12:35:12 145.826/435.025
BUGSAT 1 26 May 12:44:22 12:48:28 49° 260° (W) 12:52:32 437.445
CUBEBUG 1 26 May 12:44:47 12:49:06 53° 100° (E) 12:53:22 437.445
DX 1 26 May 12:47:34 12:51:48 45° 99° (E) 12:55:58 434.975-435.025
VELOX 1 26 May 12:47:49 12:52:12 54° 100° (E) 12:56:32 145.980
PCSat 26 May 12:47:55 12:52:29 26° 323° (NW) 12:57:04 145.827
BEESAT 3 26 May 12:57:22 13:01:18 79° 129° (SE) 13:05:17 437.485
POPSAT HIP 1 26 May 12:58:02 13:00:59 18° 269° (W) 13:03:57 437.405
QB50P1 26 May 12:58:39 13:01:33 18° 269° (W) 13:04:28 145.935-145.965
AO-7 26 May 12:59:01 13:03:15 15° 34° (NE) 13:07:28 29.400- 29.500
QB50P2 26 May 13:00:41 13:03:22 16° 270° (W) 13:06:06 145.880/145.840
POLYITAN 1 26 May 13:03:12 13:05:50 16° 270° (W) 13:08:29 437.675
HUMSAT D 26 May 13:04:09 13:06:46 17° 299° (WNW) 13:09:24 437.325/437.525
50 SAT 26 May 13:11:33 13:15:15 66° 286° (WNW) 13:18:57 437.505
DANDE 26 May 13:15:34 13:21:08 76° 97° (E) 13:28:27 436.750
SPROUT 26 May 13:18:27 13:22:36 48° 99° (E) 13:26:42 437.525
NANOSAT C BR1 26 May 13:19:26 13:21:03 12° 272° (W) 13:22:40 145.865
AISAT 26 May 13:23:46 13:28:10 65° 288° (WNW) 13:32:32 437.250
Oscar 19 26 May 13:32:31 13:37:43 78° 73° (ENE) 13:42:57 437.125/150
CUSAT 1 26 May 13:34:36 13:40:55 49° 292° (WNW) 13:48:30 437.405
UKube-1 26 May 13:39:31 13:43:50 67° 287° (WNW) 13:48:06 .
Gurwin Techsat 1B 26 May 13:44:07 13:49:10 46° 67° (ENE) 13:54:14 435.225
TISAT 1 26 May 13:48:09 13:51:49 29° 95° (E) 13:55:28 437.305
AO-85 26 May 13:49:39 13:53:42 24° 31° (NNE) 13:57:28 145.980
ESTCUBE 1 26 May 13:56:44 14:00:28 25° 297° (WNW) 14:04:12 437.505/2401.250
BEESAT 2 26 May 13:57:34 14:01:27 49° 314° (NW) 14:05:21 435.950
Cosmos 2491 26 May 14:05:32 14:12:23 24° 57° (ENE) 14:19:10 435.465 / 435.565
ITAMSAT 1 26 May 14:11:38 14:16:17 35° 64° (ENE) 14:20:57 435.822/435.867
AIST 2 26 May 14:18:20 14:21:42 25° 116° (ESE) 14:25:06 435.215
JAS-2 26 May 14:19:26 14:26:09 37° 268° (W) 14:33:19 435.910
BEESAT 26 May 14:20:20 14:22:57 14° 88° (E) 14:25:33 436.000
CUBEBUG 1 26 May 14:21:51 14:25:03 20° 299° (WNW) 14:28:13 437.445
DX 1 26 May 14:24:20 14:27:44 23° 298° (WNW) 14:31:07 434.975-435.025
VELOX 1 26 May 14:25:05 14:28:19 20° 299° (WNW) 14:31:30 145.980
PCSat 26 May 14:35:56 14:37:52 12° 348° (NNW) 14:39:48 145.827
BEESAT 3 26 May 14:36:34 14:39:29 19° 327° (NNW) 14:42:25 437.485
AO-7 26 May 14:46:16 14:54:01 47° 58° (ENE) 15:01:49 29.400- 29.500
SPROUT 26 May 14:55:06 14:58:15 20° 298° (WNW) 15:01:24 437.525
DANDE 26 May 15:00:09 15:05:02 25° 304° (NW) 15:10:55 436.750
Oscar 19 26 May 15:14:27 15:17:40 16° 272° (W) 15:20:53 437.125/150
CUSAT 1 26 May 15:21:58 15:25:20 13° 316° (NW) 15:28:54 437.405
TISAT 1 26 May 15:23:47 15:27:28 30° 294° (WNW) 15:31:08 437.305
Gurwin Techsat 1B 26 May 15:24:44 15:29:18 29° 266° (W) 15:33:54 435.225
SWISSCUBE 26 May 15:26:36 15:31:23 63° 102° (ESE) 15:36:07 437.505
AO-85 26 May 15:29:57 15:34:48 79° 233° (SW) 15:39:08 145.980
ITUPSAT 1 26 May 15:32:01 15:36:48 63° 102° (ESE) 15:41:34 437.325
BEESAT 2 26 May 15:38:19 15:40:14 13° 336° (NNW) 15:42:09 435.950
KKS-1 26 May 15:38:56 15:39:54 11° 87° (E) 15:40:52 437.445
MOZHAYETS 4 26 May 15:45:22 15:45:32 10° 85° (E) 15:45:42
ITAMSAT 1 26 May 15:50:57 15:55:44 37° 263° (W) 16:00:33 435.822/435.867
AIST 2 26 May 15:56:00 15:59:59 46° 315° (NW) 16:04:00 435.215
BEESAT 26 May 15:56:31 16:01:19 78° 286° (WNW) 16:06:06 436.000
Cosmos 2491 26 May 16:01:44 16:10:35 90° 85° (E) 16:19:19 435.465 / 435.565
HORYU 2 26 May 16:05:20 16:09:05 27° 64° (ENE) 16:12:49 437.375
YUBILEINY 26 May 16:07:25 16:15:15 40° 85° (E) 16:23:05 435.215
STARS 26 May 16:17:04 16:19:21 14° 89° (E) 16:21:37 437.465
NOAA 18 26 May 16:21:23 16:23:21 12° 49° (NE) 16:25:19 137.9125
PCSat 26 May 16:21:33 16:23:51 13° 15° (NNE) 16:26:08 145.827
NOAA 15 26 May 16:32:00 16:35:00 15° 53° (NE) 16:38:00 137.62
Cubesat XI-IV 26 May 16:33:49 16:35:24 11° 50° (NE) 16:37:00 437.490
AO-7 26 May 16:38:46 16:46:45 51° 259° (W) 16:54:50 29.400- 29.500
SWISSCUBE 26 May 17:05:17 17:08:45 20° 301° (WNW) 17:12:13 437.505
ITUPSAT 1 26 May 17:10:45 17:14:13 20° 301° (WNW) 17:17:41 437.325
KKS-1 26 May 17:12:41 17:17:10 88° 114° (ESE) 17:21:36 437.445
AO-85 26 May 17:13:04 17:14:17 11° 255° (WSW) 17:15:28 145.980
CUTE-I 26 May 17:17:20 17:21:29 24° 59° (ENE) 17:25:41 437.470
MOZHAYETS 4 26 May 17:18:49 17:23:28 80° 104° (ESE) 17:28:06
RS-15 26 May 17:20:15 17:30:19 39° 107° (ESE) 17:40:48 29.354- 29.394
BRITE-PL 26 May 17:27:18 17:32:13 31° 63° (ENE) 17:37:09 437.365/2234.400
HO-68 26 May 17:35:22 17:37:22 11° 38° (NE) 17:39:23 435.675
BEESAT 26 May 17:36:12 17:38:20 13° 306° (NW) 17:40:26 436.000
AIST 2 26 May 17:37:28 17:39:29 13° 337° (NNW) 17:41:30 435.215
HORYU 2 26 May 17:41:26 17:45:32 37° 263° (W) 17:49:38 437.375
STARS 26 May 17:51:51 17:56:13 71° 287° (WNW) 18:00:33 437.465
LilacSat-2 26 May 17:52:20 17:55:40 29° 68° (ENE) 17:59:00 437.200
Cosmos 2504 26 May 17:55:52 18:02:45 49° 89° (E) 18:10:02 435.465 / 435.565
NOAA 18 26 May 17:57:36 18:02:57 60° 69° (ENE) 18:08:19 137.9125
GOMX 1 26 May 17:58:36 18:03:15 29° 64° (ENE) 18:07:48 467.674
Cosmos 2491 26 May 17:59:59 18:06:13 22° 284° (WNW) 18:12:26 435.465 / 435.565
YUBILEINY 26 May 18:03:21 18:11:48 54° 287° (WNW) 18:20:20 435.215
PCSat 26 May 18:04:16 18:09:04 31° 40° (NE) 18:13:51 145.827
NOAA 15 26 May 18:08:41 18:13:59 81° 72° (ENE) 18:19:21 137.62
Cubesat XI-IV 26 May 18:09:13 18:14:25 59° 69° (ENE) 18:19:40 437.490
CUBESAT XI-V 26 May 18:40:47 18:45:32 68° 102° (ESE) 18:50:13 437.345
CUTE 1.7 + AOD 2 26 May 18:46:06 18:46:36 10° 56° (NE) 18:47:07 437.475
KKS-1 26 May 18:50:56 18:53:05 13° 304° (WNW) 18:55:13 437.445
DOVE 4 26 May 18:53:08 18:58:01 42° 68° (ENE) 19:02:43 437.250
AUBIESAT-1 26 May 18:54:49 18:58:01 23° 60° (ENE) 19:01:03 437.475
CUTE-I 26 May 18:55:55 19:01:09 60° 258° (WSW) 19:06:26 437.470
O/OREOS (USA 219) 26 May 18:56:00 18:59:59 30° 53° (NE) 19:03:55 437.305
MOZHAYETS 4 26 May 18:57:22 19:00:04 16° 302° (WNW) 19:02:45
BEESAT 2 26 May 18:57:41 18:59:34 13° 24° (NNE) 19:01:27 435.950
M-CUBED/EXP-1 PRIME 26 May 18:59:59 19:03:37 31° 62° (ENE) 19:07:01 437.505
BRITE-PL 26 May 19:04:57 19:10:27 50° 262° (W) 19:15:59 437.365/2234.400
COMPASS 1 26 May 19:12:22 19:12:31 10° 56° (NE) 19:12:40 437.405
HO-68 26 May 19:16:41 19:23:16 42° 60° (ENE) 19:29:51 435.675
LilacSat-2 26 May 19:26:50 19:29:59 25° 266° (W) 19:33:10 437.200
RS-15 26 May 19:30:20 19:41:50 76° 313° (NW) 19:54:03 29.354- 29.394
STARS 26 May 19:31:07 19:31:46 10° 306° (NW) 19:32:26 437.465
STRAND 1 26 May 19:31:35 19:35:29 21° 91° (E) 19:39:22 437.568
CINEMA 3 26 May 19:32:55 19:37:04 32° 67° (ENE) 19:41:04 145.822/145.860
BEESAT 3 26 May 19:34:04 19:37:25 25° 38° (NE) 19:40:46 437.485
GOMX 1 26 May 19:35:45 19:41:06 50° 262° (W) 19:46:19 467.674
NOAA 18 26 May 19:39:44 19:44:01 23° 268° (W) 19:48:19 137.9125
PCSat 26 May 19:47:29 19:52:51 61° 241° (WSW) 19:58:11 145.827
Cosmos 2504 26 May 19:49:40 19:56:21 38° 293° (WNW) 20:03:27 435.465 / 435.565
CANX-2 26 May 19:50:14 19:54:14 45° 70° (ENE) 19:58:17 2200.000
Cubesat XI-IV 26 May 19:50:46 19:54:53 23° 268° (W) 19:59:02 437.490
NOAA 15 26 May 19:51:12 19:54:25 16° 272° (W) 19:57:40 137.62
SEEDS 26 May 19:55:29 19:59:15 34° 68° (ENE) 20:03:02 437.485
YUBILEINY 26 May 20:06:50 20:11:06 14° 314° (NW) 20:15:22 435.215
CUTE 1.7 + AOD 2 26 May 20:17:29 20:21:41 75° 75° (ENE) 20:25:55 437.475
Oscar 11 26 May 20:18:35 20:21:26 18° 61° (ENE) 20:24:17 145.826/435.025
CUBESAT XI-V 26 May 20:19:13 20:22:24 18° 301° (WNW) 20:25:36 437.345
AUBIESAT-1 26 May 20:28:33 20:32:23 38° 255° (WSW) 20:36:00 437.475
CUBEBUG 2 26 May 20:29:57 20:33:57 37° 69° (ENE) 20:37:54 437.445
ZACube-1 26 May 20:30:25 20:33:26 19° 63° (ENE) 20:36:26 437.345
DOVE 4 26 May 20:31:12 20:35:47 31° 266° (W) 20:40:14 437.250
BEESAT 2 26 May 20:34:28 20:38:22 47° 46° (NE) 20:42:14 435.950
M-CUBED/EXP-1 PRIME 26 May 20:34:32 20:38:10 28° 257° (WSW) 20:41:36 437.505
O/OREOS (USA 219) 26 May 20:35:19 20:39:27 37° 253° (WSW) 20:43:34 437.305
COMPASS 1 26 May 20:43:12 20:47:19 76° 75° (ENE) 20:51:31 437.405
CUSAT 1 26 May 20:43:19 20:46:16 12° 42° (NE) 20:49:08 437.405
AIST 1 26 May 20:45:57 20:48:20 14° 83° (E) 20:50:43
AAUSAT CUBESAT 2 26 May 20:46:50 20:50:56 67° 74° (ENE) 20:55:05 437.432
PRISM 26 May 20:49:19 20:52:27 20° 93° (E) 20:55:34 437.425
AIST 2 26 May 20:57:47 21:00:10 15° 26° (NNE) 21:02:31 435.215
UWE-3 26 May 21:00:37 21:04:47 53° 72° (ENE) 21:08:54 435.000/436.395/437.385
HO-68 26 May 21:04:03 21:10:54 48° 261° (W) 21:17:49 435.675
FUNcube-1 26 May 21:07:59 21:11:56 40° 70° (ENE) 21:15:50 145.935
CINEMA 3 26 May 21:09:53 21:14:10 33° 264° (W) 21:18:19 145.822/145.860
STRAND 1 26 May 21:09:59 21:15:03 59° 290° (WNW) 21:20:07 437.568
BEESAT 3 26 May 21:11:30 21:15:21 49° 238° (WSW) 21:19:09 437.485
DELFI C3 26 May 21:26:03 21:29:41 35° 69° (ENE) 21:33:22 145.870
CANX-2 26 May 21:27:13 21:30:19 20° 268° (W) 21:33:29 2200.000
SEEDS 26 May 21:31:29 21:35:00 26° 266° (W) 21:38:33 437.485
RS-15 26 May 21:45:40 21:56:34 40° 343° (NNW) 22:07:55 29.354- 29.394
Oscar 11 26 May 21:52:54 21:57:08 60° 259° (W) 22:01:25 145.826/435.025
CUTE 1.7 + AOD 2 26 May 21:56:22 21:58:04 12° 273° (W) 21:59:48 437.475
GONETS M04 26 May 21:56:58 22:05:10 46° 87° (E) 22:13:20
ZACube-1 26 May 22:05:20 22:09:27 49° 261° (W) 22:13:31 437.345
ISS 26 May 22:05:52 22:08:05 17° 138° (SE) 22:10:17 145.825
CUBEBUG 2 26 May 22:07:05 22:10:42 25° 266° (W) 22:14:15 437.445
DANDE 26 May 22:07:30 22:14:01 24° 56° (NE) 22:20:24 436.750
CUBEBUG 1 26 May 22:12:04 22:12:55 10° 54° (NE) 22:13:46 437.445
BEESAT 2 26 May 22:12:50 22:15:58 22° 245° (WSW) 22:19:04 435.950
VELOX 1 26 May 22:15:40 22:17:10 12° 55° (NE) 22:18:41 145.980
AIST 1 26 May 22:21:01 22:25:23 65° 282° (WNW) 22:29:48
COMPASS 1 26 May 22:21:52 22:23:26 12° 273° (W) 22:25:01 437.405
HUMSAT D 26 May 22:22:09 22:26:12 67° 73° (ENE) 22:30:15 437.325/437.525
50 SAT 26 May 22:23:03 22:23:36 10° 58° (ENE) 22:24:07 437.505
CUSAT 1 26 May 22:23:19 22:30:52 43° 66° (ENE) 22:37:28 437.405
PRISM 26 May 22:23:59 22:27:59 44° 291° (WNW) 22:31:57 437.425
AAUSAT CUBESAT 2 26 May 22:24:52 22:26:54 13° 272° (W) 22:28:56 437.432
Cosmos 2499 26 May 22:33:34 22:40:18 43° 87° (E) 22:47:31 435.465 / 435.565
AIST 2 26 May 22:35:25 22:39:32 56° 48° (NE) 22:43:36 435.215
UWE-3 26 May 22:38:43 22:41:34 17° 269° (W) 22:44:25 435.000/436.395/437.385
FUNcube-1 26 May 22:45:05 22:48:21 22° 267° (W) 22:51:36 145.935
AISAT 26 May 22:49:13 22:52:44 23° 63° (ENE) 22:56:17 437.250
STRAND 1 26 May 22:51:51 22:53:13 11° 309° (NW) 22:54:35 437.568
DELFI C3 26 May 23:01:30 23:04:40 22° 267° (W) 23:07:52 145.870
UKube-1 26 May 23:02:42 23:05:59 21° 62° (ENE) 23:09:16 .
UNISAT 6 26 May 23:05:45 23:09:38 32° 96° (E) 23:13:32 437.425
TIGRISAT 26 May 23:13:35 23:17:33 36° 97° (E) 23:21:33 435.000
ESTCUBE 1 26 May 23:22:24 23:26:51 61° 72° (ENE) 23:31:20 437.505/2401.250
PHONESAT 2.4 26 May 23:35:47 23:37:05 12° 162° (SSE) 23:38:23 2401.200-2431.200
ISS 26 May 23:40:52 23:44:07 81° 156° (SSE) 23:47:24 145.825
CUBEBUG 1 26 May 23:43:58 23:48:24 70° 73° (ENE) 23:52:50 437.445
DX 1 26 May 23:46:22 23:50:42 64° 72° (ENE) 23:55:04 434.975-435.025
ANTELSAT 26 May 23:46:46 23:51:04 83° 101° (E) 23:55:25 437.575/2403.000
VELOX 1 26 May 23:48:25 23:52:52 77° 75° (ENE) 23:57:22 145.980
DANDE 26 May 23:49:43 23:58:13 81° 77° (ENE) 00:06:10 436.750
50 SAT 26 May 23:53:06 23:56:44 83° 257° (WSW) 00:00:25 437.505
GONETS M04 26 May 23:53:33 00:01:58 48° 289° (WNW) 00:10:24
HUMSAT D 27 May 00:00:22 00:02:17 13° 271° (W) 00:04:12 437.325/437.525
DUCHIFAT 1 27 May 00:00:51 00:04:07 22° 93° (E) 00:07:22 145.980
RS-15 27 May 00:01:44 00:12:57 41° 17° (NNE) 00:24:24 29.354- 29.394
CUSAT 1 27 May 00:05:35 00:13:10 50° 269° (W) 00:19:41 437.405
AIST 2 27 May 00:14:37 00:17:40 20° 246° (WSW) 00:20:42 435.215
SPROUT 27 May 00:15:20 00:19:34 59° 72° (ENE) 00:23:48 437.525
SO-50 27 May 00:22:46 00:25:59 18° 111° (ESE) 00:29:12 436.795
BUGSAT 1 27 May 00:23:13 00:26:00 18° 91° (E) 00:28:45 437.445
AISAT 27 May 00:24:40 00:28:58 46° 260° (W) 00:33:18 437.250
Cosmos 2499 27 May 00:26:28 00:33:24 44° 290° (WNW) 00:40:53 435.465 / 435.565
POPSAT HIP 1 27 May 00:37:22 00:41:31 55° 100° (E) 00:45:38 437.405
UKube-1 27 May 00:37:33 00:41:45 48° 260° (W) 00:45:58 .
QB50P1 27 May 00:37:51 00:42:01 56° 101° (E) 00:46:08 145.935-145.965
QB50P2 27 May 00:39:49 00:44:01 63° 102° (ESE) 00:48:10 145.880/145.840
POLYITAN 1 27 May 00:42:16 00:46:27 64° 101° (ESE) 00:50:37 437.675
UNISAT 6 27 May 00:42:36 00:46:18 29° 294° (WNW) 00:50:03 437.425
TISAT 1 27 May 00:43:11 00:47:03 36° 68° (ENE) 00:50:56 437.305
TIGRISAT 27 May 00:50:35 00:54:08 26° 295° (WNW) 00:57:43 435.000
NANOSAT C BR1 27 May 00:56:48 01:01:01 85° 104° (ESE) 01:05:12 145.865
ESTCUBE 1 27 May 01:01:07 01:04:04 17° 270° (W) 01:07:03 437.505/2401.250
SWISSCUBE 27 May 01:01:10 01:04:11 17° 57° (ENE) 01:07:12 437.505
ITUPSAT 1 27 May 01:06:48 01:09:51 17° 57° (ENE) 01:12:55 437.325
PHONESAT 2.4 27 May 01:10:51 01:13:09 19° 178° (S) 01:15:28 2401.200-2431.200
ISS 27 May 01:17:34 01:20:45 47° 356° (N) 01:23:56 145.825
CUBEBUG 1 27 May 01:22:44 01:25:10 14° 271° (W) 01:27:37 437.445
DX 1 27 May 01:24:41 01:27:20 15° 270° (W) 01:29:58 434.975-435.025
JAS-2 27 May 01:24:46 01:31:47 39° 93° (E) 01:38:08 435.910
ANTELSAT 27 May 01:25:10 01:27:14 13° 302° (WNW) 01:29:17 437.575/2403.000
VELOX 1 27 May 01:27:45 01:29:54 13° 272° (W) 01:32:04 145.980
BEESAT 27 May 01:29:50 01:33:46 26° 63° (ENE) 01:37:43 436.000
DANDE 27 May 01:33:31 01:40:15 28° 278° (W) 01:46:41 436.750
DUCHIFAT 1 27 May 01:36:03 01:40:00 40° 291° (WNW) 01:43:54 145.980
Oscar 19 27 May 01:41:03 01:44:54 21° 91° (E) 01:48:41 437.125/150
CUSAT 1 27 May 01:52:16 01:53:13 10° 291° (WNW) 01:54:08 437.405
SPROUT 27 May 01:53:15 01:55:54 16° 270° (W) 01:58:34 437.525
BUGSAT 1 27 May 01:57:45 02:01:39 47° 290° (WNW) 02:05:31 437.445
Gurwin Techsat 1B 27 May 01:58:02 02:00:30 13° 86° (E) 02:02:58 435.225
GONETS M04 27 May 01:58:09 02:01:34 12° 316° (NW) 02:04:59
SO-50 27 May 02:00:59 02:05:54 81° 309° (NW) 02:10:50 436.795
YUBILEINY 27 May 02:12:06 02:19:03 25° 58° (ENE) 02:25:59 435.215
POPSAT HIP 1 27 May 02:14:04 02:16:56 18° 299° (WNW) 02:19:46 437.405
QB50P1 27 May 02:14:36 02:17:24 18° 299° (WNW) 02:20:12 145.935-145.965
RS-15 27 May 02:15:23 02:27:43 77° 47° (NE) 02:40:06 29.354- 29.394
QB50P2 27 May 02:16:45 02:19:22 16° 300° (WNW) 02:22:01 145.880/145.840
POLYITAN 1 27 May 02:19:14 02:21:49 16° 300° (WNW) 02:24:23 437.675
TISAT 1 27 May 02:19:17 02:22:48 25° 266° (W) 02:26:19 437.305
Cosmos 2499 27 May 02:27:59 02:29:14 10° 317° (NW) 02:30:29 435.465 / 435.565
NANOSAT C BR1 27 May 02:34:19 02:36:08 13° 303° (WNW) 02:37:56 145.865
SWISSCUBE 27 May 02:36:40 02:41:25 76° 256° (WSW) 02:46:12 437.505
KKS-1 27 May 02:39:30 02:42:29 18° 60° (ENE) 02:45:27 437.445
ITUPSAT 1 27 May 02:42:23 02:47:09 75° 258° (WSW) 02:51:57 437.325
PHONESAT 2.4 27 May 02:47:29 02:49:15 14° 195° (SSW) 02:51:01 2401.200-2431.200
MOZHAYETS 4 27 May 02:49:16 02:52:07 17° 59° (ENE) 02:54:58
ISS 27 May 02:54:13 02:57:28 66° 16° (NNE) 03:00:43 145.825
BEESAT 27 May 03:06:49 03:11:21 44° 261° (W) 03:15:56 436.000
JAS-2 27 May 03:09:39 03:17:01 53° 295° (WNW) 03:23:43 435.910
Cosmos 2491 27 May 03:13:46 03:20:04 22° 76° (ENE) 03:26:21 435.465 / 435.565
STARS 27 May 03:16:53 03:20:13 21° 62° (ENE) 03:23:33 437.465
Oscar 19 27 May 03:19:32 03:24:39 61° 289° (WNW) 03:29:42 437.125/150
Gurwin Techsat 1B 27 May 03:35:54 03:41:16 85° 102° (ESE) 03:46:36 435.225
Cosmos 2504 27 May 03:42:29 03:49:13 26° 61° (ENE) 03:56:13 435.465 / 435.565
SO-50 27 May 03:43:20 03:47:08 22° 331° (NNW) 03:50:55 436.795
ITAMSAT 1 27 May 03:59:15 04:04:25 58° 101° (ESE) 04:09:33 435.822/435.867
YUBILEINY 27 May 04:08:19 04:17:07 88° 261° (W) 04:25:55 435.215
CUBESAT XI-V 27 May 04:12:45 04:15:26 15° 57° (ENE) 04:18:07 437.345
KKS-1 27 May 04:14:10 04:18:36 64° 258° (WSW) 04:23:03 437.445
MOZHAYETS 4 27 May 04:24:12 04:28:44 72° 257° (WSW) 04:33:20
RS-15 27 May 04:28:29 04:39:26 41° 252° (WSW) 04:50:23 29.354- 29.394
ISS 27 May 04:30:49 04:33:46 32° 215° (SW) 04:36:44 145.825
AO-7 27 May 04:35:30 04:43:30 46° 100° (E) 04:51:27 29.400- 29.500
STARS 27 May 04:52:00 04:56:17 49° 260° (W) 05:00:35 437.465
JAS-2 27 May 04:56:24 05:00:17 15° 317° (NW) 05:04:02 435.910
Oscar 19 27 May 05:01:21 05:02:57 11° 309° (NW) 05:04:34 437.125/150
Cosmos 2491 27 May 05:06:50 05:15:42 90° 107° (ESE) 05:24:35 435.465 / 435.565
Gurwin Techsat 1B 27 May 05:17:06 05:20:34 18° 304° (NW) 05:24:02 435.225
SO-50 27 May 05:27:34 05:29:25 12° 355° (N) 05:31:15 436.795
HORYU 2 27 May 05:28:17 05:32:13 30° 96° (E) 05:36:09 437.375
Cosmos 2504 27 May 05:35:15 05:43:37 85° 263° (W) 05:52:25 435.465 / 435.565
ITAMSAT 1 27 May 05:39:24 05:43:32 24° 300° (WNW) 05:47:40 435.822/435.867
CUBESAT XI-V 27 May 05:47:29 05:52:11 83° 256° (WSW) 05:56:56 437.345
AO-85 27 May 05:48:30 05:52:02 18° 110° (ESE) 05:55:32 145.980
YUBILEINY 27 May 06:06:35 06:12:40 22° 284° (WNW) 06:18:45 435.215
NOAA 18 27 May 06:16:40 06:20:21 18° 90° (E) 06:24:01 137.9125
NOAA 15 27 May 06:20:39 06:24:48 23° 92° (E) 06:28:55 137.62
Cubesat XI-IV 27 May 06:23:34 06:27:03 17° 89° (E) 06:30:32 437.490
AO-7 27 May 06:28:24 06:36:22 51° 301° (WNW) 06:44:19 29.400- 29.500
STRAND 1 27 May 06:50:50 06:55:39 44° 67° (ENE) 07:00:30 437.568
LilacSat-2 27 May 06:55:58 06:59:11 26° 95° (E) 07:02:23 437.200
